Location: Newark
(49.5647°N, 8.2922°E)
Time: 09:02:17
(UTC+00:00)

N. Korean satellite - Visible Passes

Search period start: 20 January 2020 00:00
Search period end: 30 January 2020 00:00
Orbit: 454 x 508 km, 97.2° (Epoch: 19 January)

Date Brightness Start Highest point End Pass type
(mag) Time Alt. Az. Time Alt. Az. Time Alt. Az.
20 Jan 8.7 04:44:27 10° NE 04:47:31 27° E 04:50:36 10° SSE visible
20 Jan 7.6 06:17:58 10° NNW 06:20:50 24° WNW 06:23:44 10° WSW visible
20 Jan 8.7 16:57:19 10° SSW 17:00:23 30° W 17:03:28 10° NNW visible
21 Jan 9.7 04:19:44 10° NE 04:21:51 15° E 04:23:57 10° SE visible
21 Jan 6.8 05:52:05 10° N 05:55:28 45° WNW 05:58:52 10° SW visible
21 Jan 7.0 16:31:25 10° S 16:34:48 63° WSW 16:38:12 10° NNW visible
22 Jan 6.5 05:26:28 10° NNE 05:30:01 89° ESE 05:33:36 10° SSW visible
22 Jan 10.2 17:42:26 10° W 17:43:06 10° W 17:43:46 10° WNW visible
23 Jan 7.8 05:01:05 10° NNE 05:04:29 43° E 05:07:55 10° S visible
23 Jan 8.1 06:35:16 10° NNW 06:37:36 17° WNW 06:39:56 10° WSW visible
23 Jan 9.5 17:14:47 10° SW 17:17:21 20° W 17:19:57 10° NW visible
24 Jan 9.1 04:35:59 10° NE 04:38:51 23° E 04:41:45 10° SSE visible
24 Jan 7.3 06:09:09 10° N 06:12:16 29° WNW 06:15:25 10° SW visible
24 Jan 8.2 16:48:30 10° SSW 16:51:42 38° W 16:54:57 10° NNW visible
25 Jan 10.0 04:11:35 10° ENE 04:13:09 12° E 04:14:43 10° ESE visible
25 Jan 6.5 05:43:22 10° N 05:46:53 57° WNW 05:50:24 10° SSW visible
26 Jan 6.8 05:17:49 10° NNE 05:21:24 71° ESE 05:24:59 10° S visible
26 Jan 9.9 17:32:41 10° WSW 17:34:22 13° W 17:36:03 10° WNW visible
27 Jan 8.2 04:52:30 10° NNE 04:55:49 35° E 04:59:10 10° SSE visible
27 Jan 7.9 06:26:20 10° NNW 06:29:01 20° WNW 06:31:44 10° WSW visible
27 Jan 9.2 17:05:47 10° SSW 17:08:38 24° W 17:11:31 10° NW visible
28 Jan 9.4 04:27:32 10° NE 04:30:10 19° E 04:32:48 10° SE visible
28 Jan 7.1 06:00:22 10° N 06:03:40 36° WNW 06:07:01 10° SW visible
29 Jan 10.2 04:04:00 10° E 04:04:24 10° E 04:04:50 10° E visible
29 Jan 6.4 05:34:39 10° N 05:38:15 72° WNW 05:41:52 10° SSW visible
